SCP
0 0 0 0 0 0 0 0 0 0 0 0 0 0 0 0 0 0 0 0 0 0 0 0 0 0 0 0 0 0 0 0 0 0 0 0 0 0 0 0 0 0 0 0 0 0 0
0 0 0 0 0 0 0 0 0 0 0 0 0 0 0 0 0 0 0 0 0 0 0 0 0 0 0 0 0 0 0 0 0 0 0 0 0 0 0 0 0 0 0 0 0 0 0
0 0 0 0 0 0 0 0 0 0 0 0 0 0 0 0 0 0 0 0 0 0 0 0 0 0 0 0 0 0 0 0 0 0 0 0 0 0 0 0 0 0 0 0 0 0 0
0 0 0 0 0 0 0 0 0 0 0 0 0 0 0 0 0 0 0 0 0 0 0 0 0 0 0 0 0 0 0 0 0 0 0 0 0 0 0 0 0 0 0 0 0 0 0
0 0 0 0 0 -0 0 0 0 0 0 0 0 0 0 0 0 0 0 0 0 0 0 0 0 0 0 0 0 0 0 0 0 0 0 0 0 0 0 0 0 0 0 0 0 0 0
0 0 0 0 0 -0 0 0 1 0 0 0 0 0 0 0 0 0 0 1 0 0 0 0 0 0 0 0 0 0 0 0 0 0 0 0 0 0 0 0 0 0 0 0 0 0 0
0 0 0 0 0 -0 0 0 1 1 0 0 0 0 0 0 0 0 0 0 0 0 0 0 0 0 0 0 0 0 0 0 0 0 0 0 0 0 0 0 0 0 0 0 0 0 0
0 0 0 0 0 0 0 0 0 1 0 0 0 0 0 0 0 0 0 0 0 0 0 0 0 0 0 0 0 0 0 0 0 0 0 0 0 0 0 0 0 0 0 0 0 0 0
-0 0 0 0 -0 0 0 0 0 0 0 0 0 0 0 0 0 0 0 0 0 0 0 0 0 0 0 0 0 0 0 0 0 0 0 0 0 0 0 0 0 0 0 0 0 0 0
0 0 0 0 0 -0 -0 0 0 0 0 0 0 0 0 0 0 0 0 0 0 0 0 0 0 0 0 0 0 0 0 0 0 0 0 0 0 0 0 0 0 0 0 0 0 0 0
-0 -0 0 0 0 0 0 0 0 0 0 0 0 0 0 0 0 0 0 0 0 0 0 0 0 0 0 0 0 0 0 0 0 0 0 0 0 0 0 0 0 0 0 0 0 0 0
-0 -0 0 0 0 0 0 0 0 0 0 0 0 0 0 0 0 0 0 0 0 0 0 0 0 0 0 0 0 0 0 0 0 0 0 0 0 0 0 0 0 0 0 0 0 0 0
-0 0 0 0 0 0 0 0 0 0 0 0 0 0 0 0 0 0 0 0 0 0 0 0 0 0 0 0 0 0 0 0 0 0 0 0 0 0 0 0 0 0 0 0 0 0 0
0 -0 0 0 0 0 0 0 0 0 0 0 0 0 0 0 0 0 0 0 0 0 0 0 0 0 0 0 0 0 0 0 0 0 0 0 0 0 0 0 0 0 0 0 0 0 0
-0 0 0 0 0 0 0 0 0 0 0 0 0 0 0 0 0 0 0 0 0 0 0 0 0 0 0 0 0 0 0 0 0 0 0 0 0 0 0 0 0 0 0 0 0 0 0
-0 -0 0 0 -0 -0 0 0 0 0 0 0 0 0 0 0 0 0 0 0 0 0 0 0 0 0 0 0 0 0 0 0 0 0 0 0 0 0 0 0 0 0 0 0 0 0 0
-0 0 -0 0 0 0 0 0 0 0 0 0 0 0 0 0 0 0 0 0 0 0 0 0 0 0 0 0 0 0 0 0 0 0 0 0 0 0 0 0 0 0 0 0 0 0 0
-0 -0 0 0 0 0 0 0 -0 -0 -0 0 0 0 0 0 0 0 0 0 0 0 0 0 0 0 0 0 0 0 0 0 0 0 0 0 0 0 0 0 0 0 0 0 0 0 0
-0 -0 0 0 -0 0 0 -0 -0 -0 -0 0 0 0 0 0 0 0 0 0 0 0 0 0 0 0 0 0 0 0 0 0 0 0 0 0 0 0 0 0 0 0 0 0 0 0 0
0 -0 0 -0 -0 0 -0 0 -0 0 -0 0 0 0 0 0 0 0 0 0 0 0 0 0 0 0 0 0 0 0 0 0 0 0 0 0 0 0 0 0 0 0 0 0 0 0 0
0 -0 0 -0 -0 -0 0 0 0 -0 0 0 0 0 0 0 0 0 0 0 0 0 0 0 0 0 0 0 0 0 0 0 0 0 0 0 0 0 0 0 0 0 0 0 0 0 0
0 0 0 0 0 0 0 0 -0 -0 -0 0 0 0 0 0 0 0 0 0 0 0 0 0 0 0 0 0 0 0 0 0 0 0 0 0 0 0 0 0 0 0 0 0 0 0 0
-0 -0 -0 0 0 0 0 -0 -0 -0 0 0 0 0 0 0 0 0 0 0 0 0 0 0 0 0 0 0 0 0 0 0 0 0 0 0 0 0 0 0 0 0 0 0 0 0 0
-0 0 -0 0 0 0 0 -0 -0 -0 0 0 -0 -0 0 0 0 0 0 0 -0 -0 0 0 0 0 0 0 0 0 0 0 0 0 0 0 0 0 0 0 0 0 0 0 0 0 0
-0 0 0 -0 0 0 -0 -0 -0 0 0 0 -0 0 0 0 0 0 0 0 -0 0 0 0 0 0 0 0 0 0 0 0 0 0 0 0 0 0 0 0 0 0 0 0 0 0 0
0 0 0 -0 -0 0 -0 -0 0 0 0 0 0 0 0 0 0 0 -0 0 0 0 0 0 0 0 0 0 0 0 0 0 0 0 0 0 0 0 0 0 0 0 0 0 0 0 0
0 -0 0 -0 -0 -0 -0 0 0 0 -0 0 0 0 0 0 0 0 0 0 0 0 0 0 0 0 0 0 0 0 0 0 0 0 0 0 0 0 0 0 0 0 0 0 0 0 0
0 0 -0 -0 -0 -0 0 0 0 0 -0 0 0 0 0 0 0 0 0 0 0 0 0 0 0 0 0 0 0 0 0 0 0 0 0 0 0 0 0 0 0 0 0 0 0 0 0
-0 0 0 0 0 0 0 0 0 0 -0 0 0 0 0 0 0 0 0 0 0 0 0 0 0 0 0 0 0 0 0 0 0 0 0 0 0 0 0 0 0 0 0 0 0 0 0
Wind_Speed_500mb
69 65 70 74 77 82 81 89 97 83 72 70 68 67 64 64 60 53 50 47 44 41 41 41 44 36 36 34 42 6 5 33 49 45 39 32 23 13 6 5 8 7 11 17 17 12 12
77 75 68 65 73 81 81 87 80 89 82 74 67 68 64 60 62 58 51 49 46 40 42 37 46 42 43 36 38 50 17 5 27 39 39 35 17 26 10 7 5 4 13 21 15 15 15
66 73 86 82 67 75 84 86 84 84 82 74 76 69 66 60 58 62 56 48 45 43 43 38 41 46 49 46 14 38 59 37 16 17 36 37 29 23 12 6 7 13 8 10 9 8 9
65 67 73 82 78 76 78 92 94 81 87 81 80 73 70 64 59 59 60 54 45 42 40 41 36 46 28 41 48 20 40 38 33 31 23 39 32 29 12 7 2 5 2 7 7 14 14
64 65 64 69 78 83 76 92 94 86 78 74 72 79 74 68 62 54 58 55 47 42 38 41 35 37 17 39 40 50 32 32 40 35 29 27 35 14 11 7 2 7 20 11 9 7 6
66 63 62 65 73 75 94 84 98 95 82 78 71 66 69 65 65 58 56 49 45 41 38 37 30 21 31 34 36 38 47 37 39 41 29 21 14 8 6 13 30 18 10 8 11 3 4
64 66 61 60 72 63 85 79 82 86 79 78 72 67 63 67 61 61 53 47 33 27 66 26 30 18 6 39 40 46 55 41 32 34 21 22 10 38 24 18 13 6 8 11 2 2 6
59 61 61 54 56 53 64 67 71 71 81 68 70 68 67 59 60 58 57 61 63 16 32 55 13 66 18 51 24 48 56 42 29 17 21 8 38 18 11 18 17 11 13 17 5 3 3
57 58 61 52 53 49 52 46 57 66 72 83 69 69 66 64 59 55 67 80 50 33 11 46 52 36 39 41 30 49 60 50 16 20 34 31 15 30 21 12 23 24 28 13 9 2 6
62 58 57 54 52 55 60 54 59 64 68 70 73 70 66 62 55 62 73 71 46 46 8 11 35 22 38 31 15 36 61 46 16 38 15 24 36 18 20 26 24 29 18 8 14 5 16
64 61 56 58 54 60 56 62 65 71 66 67 68 72 72 73 59 80 61 66 64 39 26 28 24 27 43 49 27 39 54 55 20 22 15 19 22 32 25 47 30 27 15 19 25 26 3
68 64 62 61 55 54 61 62 71 72 65 72 74 71 72 71 74 75 71 66 58 19 23 22 36 35 31 44 16 28 36 28 14 4 10 8 4 10 18 13 37 14 9 9 10 19 21
68 69 66 62 58 54 55 59 63 64 73 68 75 76 78 77 89 71 66 56 19 30 15 17 31 40 55 30 21 17 31 27 21 14 23 14 18 5 4 22 19 19 15 7 13 14 26
75 70 70 70 65 62 56 59 68 66 77 68 63 69 74 79 79 70 70 23 34 35 14 7 27 51 48 35 29 10 32 34 29 11 8 8 10 21 14 42 25 34 24 8 12 9 5
78 81 77 76 71 67 63 64 63 73 72 68 59 60 74 77 79 81 66 32 29 34 28 21 35 43 28 26 25 27 37 38 33 35 21 12 12 6 18 10 16 19 21 15 6 2 5
83 74 76 73 70 68 67 65 70 68 70 62 63 64 78 82 75 79 30 37 20 20 29 27 22 31 31 48 23 43 33 33 16 41 11 14 5 5 9 15 19 12 16 11 10 9 8
69 77 75 72 71 72 72 68 65 63 68 66 68 42 59 82 78 52 20 22 14 17 26 45 21 21 36 39 39 50 33 4 23 24 39 11 5 4 2 22 23 10 3 13 2 8 11
64 73 84 81 80 77 73 70 70 68 68 94 43 16 50 85 25 10 24 15 30 16 34 22 26 8 35 48 46 42 25 33 42 42 35 13 9 9 9 2 6 5 8 10 8 12 8
48 94 95 94 87 84 82 76 72 70 77 77 41 14 61 82 22 18 4 22 10 31 29 30 31 18 18 32 26 23 15 12 50 31 41 22 9 6 4 1 6 7 12 8 5 3 8
49 60 76 84 92 88 86 81 71 63 85 74 28 9 20 55 55 15 32 34 20 39 17 20 11 13 21 28 7 23 12 10 51 46 40 36 10 15 19 8 13 14 20 23 12 3 1
45 68 76 83 88 96 89 82 71 74 94 74 24 10 17 19 22 12 25 17 32 15 32 35 29 24 28 18 9 15 11 12 22 32 22 20 14 7 1 9 8 15 16 31 23 15 13
33 63 75 86 87 101 92 84 78 87 103 64 23 12 16 5 34 45 34 28 29 15 31 20 18 57 50 32 31 32 24 14 28 27 21 8 10 8 4 7 7 5 16 31 26 22 15
53 58 66 85 108 108 93 86 82 84 98 46 17 12 13 25 30 36 37 30 51 42 12 41 27 29 40 35 27 56 38 29 33 29 21 18 11 8 10 4 9 9 27 24 16 12 20
66 73 87 108 109 95 84 81 84 86 91 45 22 46 8 17 31 38 33 32 45 47 23 39 49 25 18 55 61 51 53 46 28 14 14 15 12 5 6 4 8 9 8 22 17 6 12
68 72 91 88 92 81 77 71 72 92 58 35 34 43 11 7 15 32 26 16 32 56 7 12 13 44 79 68 23 16 6 9 6 10 7 9 10 6 9 8 11 8 5 13 15 8 11
68 73 78 89 82 76 75 73 79 62 39 30 38 34 12 9 3 7 36 19 23 19 16 4 48 66 45 8 8 8 9 10 9 4 7 8 9 8 5 10 16 12 3 16 6 5 11
65 77 81 84 84 84 87 70 49 29 10 26 35 22 7 13 16 9 12 29 14 9 11 13 13 14 20 5 6 6 3 2 15 23 13 10 5 13 7 6 13 10 14 11 12 7 21
77 99 91 86 86 74 62 41 23 11 12 12 10 21 19 13 33 21 22 17 35 20 16 23 17 3 5 8 6 6 7 10 7 9 13 12 13 7 6 3 15 19 6 9 14 18 24
58 56 55 63 59 50 42 30 23 25 21 8 15 16 32 25 26 49 42 30 31 25 34 8 6 8 13 9 3 7 5 5 11 12 5 4 12 11 9 7 10 19 26 19 21 24 13
Wind_Direction_500mb
271 261 263 248 243 242 243 238 239 238 235 233 232 232 229 226 226 227 224 222 220 219 219 219 215 219 219 218 214 129 131 209 211 219 224 223 217 210 209 229 314 206 260 266 248 264 279
266 265 264 258 244 241 241 238 233 233 235 235 234 230 230 228 224 223 224 222 219 217 215 216 209 210 218 229 239 220 247 131 210 206 212 210 213 210 230 241 196 300 287 286 285 274 260
265 266 264 262 266 240 237 233 231 231 230 230 232 232 230 227 223 219 220 221 217 214 212 208 206 210 222 222 200 218 228 248 229 215 215 206 203 188 203 272 251 269 296 299 246 239 246
267 264 261 259 261 258 234 232 231 229 231 231 234 232 229 225 220 216 216 218 215 209 208 206 208 209 235 239 219 198 204 214 219 223 209 204 204 216 204 224 304 223 187 239 267 213 237
264 262 261 257 254 258 249 225 226 225 225 225 225 229 228 223 221 215 209 212 212 205 201 199 206 203 236 220 214 207 214 213 212 207 209 208 202 197 195 158 172 206 242 211 267 3 314
260 259 258 256 258 257 243 219 223 222 220 222 220 218 219 221 217 212 205 203 205 202 185 191 209 189 225 207 209 201 215 212 205 196 185 172 169 194 184 185 223 222 226 223 201 320 10
257 255 255 253 256 257 237 215 209 215 219 218 215 214 213 212 209 206 197 186 184 197 184 187 191 197 339 201 193 197 207 199 199 183 195 179 196 223 204 216 240 122 211 219 360 78 341
256 252 254 250 251 244 233 214 201 202 212 211 209 213 214 209 205 202 196 191 193 189 184 197 210 204 229 184 172 193 201 195 193 197 185 175 227 204 178 179 213 214 220 231 274 289 247
255 250 247 245 243 243 235 225 205 204 206 218 216 215 216 212 208 200 200 202 199 153 168 211 208 213 196 184 196 198 192 195 182 198 192 207 216 183 184 179 203 218 220 200 224 350 234
252 246 244 240 236 230 225 224 212 201 203 204 219 214 216 213 208 206 207 202 191 189 184 191 197 227 196 202 234 202 198 185 209 210 180 219 238 188 203 219 195 230 188 199 245 217 258
249 247 236 238 234 229 219 217 218 211 207 205 206 210 212 206 201 205 210 200 196 189 220 175 173 186 189 172 138 190 200 200 188 187 178 211 171 193 191 217 194 240 151 185 220 224 185
237 235 233 233 232 227 224 218 214 207 202 207 204 206 209 204 206 216 205 196 191 213 217 168 153 169 160 195 176 147 180 190 204 175 224 241 21 200 212 156 186 142 106 165 185 218 235
230 227 229 228 231 228 215 208 209 205 207 204 202 199 203 203 205 206 199 184 205 222 145 166 170 167 179 178 164 164 178 182 184 171 207 205 228 262 325 200 182 169 148 209 211 202 232
228 221 223 222 219 220 216 209 209 200 203 197 192 196 201 202 206 192 190 203 210 197 176 256 168 174 182 161 194 143 171 197 207 161 131 198 238 195 210 230 199 195 193 194 222 195 185
225 228 215 217 218 212 209 202 202 200 198 200 193 195 200 201 200 195 186 211 210 184 189 165 161 172 182 178 174 171 188 199 194 188 178 187 227 130 233 240 197 194 211 151 175 8 113
215 213 206 209 208 208 205 204 202 204 200 194 191 188 202 199 199 195 208 211 223 217 163 151 180 178 174 184 162 188 179 197 176 185 170 179 165 225 277 219 220 223 165 170 209 204 207
210 213 208 205 202 202 200 202 200 197 195 190 184 184 200 196 194 201 213 213 188 215 175 188 181 171 195 179 194 192 193 168 155 169 179 137 160 155 319 202 213 203 244 209 143 189 210
212 214 211 205 203 203 201 202 203 202 200 181 173 170 179 187 191 192 208 165 187 209 223 191 174 145 187 184 193 192 207 193 169 152 180 165 161 193 202 338 15 84 213 230 228 195 242
223 212 209 208 204 203 204 202 201 203 198 172 146 114 175 187 200 206 172 197 209 188 209 184 180 185 166 173 188 180 168 173 165 166 167 159 171 136 209 160 185 196 182 164 186 200 218
213 205 199 201 205 206 202 202 200 199 172 161 145 153 156 181 209 213 198 186 199 218 227 218 191 121 120 171 189 178 143 162 176 180 171 157 169 186 210 183 136 196 202 191 154 191 256
209 203 199 198 198 197 197 196 195 186 174 163 167 190 184 169 197 193 183 184 177 183 209 216 210 182 159 155 124 163 129 121 172 186 165 166 187 186 147 169 145 194 184 184 192 185 146
200 189 191 188 189 187 187 185 186 183 174 177 149 149 166 212 183 187 187 199 192 179 191 213 212 188 176 171 185 174 150 156 171 167 165 180 173 163 116 140 131 165 193 196 200 196 196
157 165 180 185 177 179 178 182 185 184 172 187 189 146 185 175 174 185 200 190 204 185 240 209 218 164 188 195 181 173 164 141 148 172 167 158 128 153 185 220 92 282 222 199 198 201 204
116 132 144 153 162 166 171 175 182 181 174 191 216 214 233 167 179 186 177 199 194 183 204 199 205 163 155 139 117 101 84 82 99 72 122 146 111 132 168 84 199 242 309 213 212 80 41
108 121 137 146 151 158 159 163 170 172 177 211 228 221 249 114 153 197 179 163 172 177 211 102 165 168 142 122 106 95 46 62 31 32 67 179 116 129 167 190 294 305 157 148 166 190 34
106 116 133 147 150 153 150 153 162 169 197 220 224 226 208 134 64 242 167 146 147 147 134 341 123 145 137 74 90 128 165 144 160 86 339 102 138 124 84 143 208 232 207 347 131 233 60
95 117 119 125 131 137 139 143 147 159 216 201 208 170 167 80 9 65 131 153 134 107 112 133 165 87 128 91 106 121 105 218 152 164 162 130 96 157 172 205 283 269 324 327 130 179 108
80 98 114 121 130 135 137 140 145 84 76 193 136 139 150 103 42 88 116 119 140 155 155 168 101 63 41 74 107 166 120 208 99 170 172 156 155 166 116 129 268 8 320 195 119 102 115
87 93 102 123 125 127 129 141 93 68 40 61 92 112 134 99 105 81 85 97 119 125 140 146 109 127 140 104 95 102 112 140 151 178 171 201 181 176 187 192 72 37 98 97 151 139 126
Wind_Speed_850mb
69 65 70 74 77 82 81 89 97 83 72 70 68 67 64 64 60 53 50 47 44 41 41 41 44 36 36 34 42 6 5 33 49 45 39 32 23 13 6 5 8 7 11 17 17 12 12
77 75 68 65 73 81 81 87 80 89 82 74 67 68 64 60 62 58 51 49 46 40 42 37 46 42 43 36 38 50 17 5 27 39 39 35 17 26 10 7 5 4 13 21 15 15 15
66 73 86 82 67 75 84 86 84 84 82 74 76 69 66 60 58 62 56 48 45 43 43 38 41 46 49 46 14 38 59 37 16 17 36 37 29 23 12 6 7 13 8 10 9 8 9
65 67 73 82 78 76 78 92 94 81 87 81 80 73 70 64 59 59 60 54 45 42 40 41 36 46 28 41 48 20 40 38 33 31 23 39 32 29 12 7 2 5 2 7 7 14 14
64 65 64 69 78 83 76 92 94 86 78 74 72 79 74 68 62 54 58 55 47 42 38 41 35 37 17 39 40 50 32 32 40 35 29 27 35 14 11 7 2 7 20 11 9 7 6
66 63 62 65 73 75 94 84 98 95 82 78 71 66 69 65 65 58 56 49 45 41 38 37 30 21 31 34 36 38 47 37 39 41 29 21 14 8 6 13 30 18 10 8 11 3 4
64 66 61 60 72 63 85 79 82 86 79 78 72 67 63 67 61 61 53 47 33 27 66 26 30 18 6 39 40 46 55 41 32 34 21 22 10 38 24 18 13 6 8 11 2 2 6
59 61 61 54 56 53 64 67 71 71 81 68 70 68 67 59 60 58 57 61 63 16 32 55 13 66 18 51 24 48 56 42 29 17 21 8 38 18 11 18 17 11 13 17 5 3 3
57 58 61 52 53 49 52 46 57 66 72 83 69 69 66 64 59 55 67 80 50 33 11 46 52 36 39 41 30 49 60 50 16 20 34 31 15 30 21 12 23 24 28 13 9 2 6
62 58 57 54 52 55 60 54 59 64 68 70 73 70 66 62 55 62 73 71 46 46 8 11 35 22 38 31 15 36 61 46 16 38 15 24 36 18 20 26 24 29 18 8 14 5 16
64 61 56 58 54 60 56 62 65 71 66 67 68 72 72 73 59 80 61 66 64 39 26 28 24 27 43 49 27 39 54 55 20 22 15 19 22 32 25 47 30 27 15 19 25 26 3
68 64 62 61 55 54 61 62 71 72 65 72 74 71 72 71 74 75 71 66 58 19 23 22 36 35 31 44 16 28 36 28 14 4 10 8 4 10 18 13 37 14 9 9 10 19 21
68 69 66 62 58 54 55 59 63 64 73 68 75 76 78 77 89 71 66 56 19 30 15 17 31 40 55 30 21 17 31 27 21 14 23 14 18 5 4 22 19 19 15 7 13 14 26
75 70 70 70 65 62 56 59 68 66 77 68 63 69 74 79 79 70 70 23 34 35 14 7 27 51 48 35 29 10 32 34 29 11 8 8 10 21 14 42 25 34 24 8 12 9 5
78 81 77 76 71 67 63 64 63 73 72 68 59 60 74 77 79 81 66 32 29 34 28 21 35 43 28 26 25 27 37 38 33 35 21 12 12 6 18 10 16 19 21 15 6 2 5
83 74 76 73 70 68 67 65 70 68 70 62 63 64 78 82 75 79 30 37 20 20 29 27 22 31 31 48 23 43 33 33 16 41 11 14 5 5 9 15 19 12 16 11 10 9 8
69 77 75 72 71 72 72 68 65 63 68 66 68 42 59 82 78 52 20 22 14 17 26 45 21 21 36 39 39 50 33 4 23 24 39 11 5 4 2 22 23 10 3 13 2 8 11
64 73 84 81 80 77 73 70 70 68 68 94 43 16 50 85 25 10 24 15 30 16 34 22 26 8 35 48 46 42 25 33 42 42 35 13 9 9 9 2 6 5 8 10 8 12 8
48 94 95 94 87 84 82 76 72 70 77 77 41 14 61 82 22 18 4 22 10 31 29 30 31 18 18 32 26 23 15 12 50 31 41 22 9 6 4 1 6 7 12 8 5 3 8
49 60 76 84 92 88 86 81 71 63 85 74 28 9 20 55 55 15 32 34 20 39 17 20 11 13 21 28 7 23 12 10 51 46 40 36 10 15 19 8 13 14 20 23 12 3 1
45 68 76 83 88 96 89 82 71 74 94 74 24 10 17 19 22 12 25 17 32 15 32 35 29 24 28 18 9 15 11 12 22 32 22 20 14 7 1 9 8 15 16 31 23 15 13
33 63 75 86 87 101 92 84 78 87 103 64 23 12 16 5 34 45 34 28 29 15 31 20 18 57 50 32 31 32 24 14 28 27 21 8 10 8 4 7 7 5 16 31 26 22 15
53 58 66 85 108 108 93 86 82 84 98 46 17 12 13 25 30 36 37 30 51 42 12 41 27 29 40 35 27 56 38 29 33 29 21 18 11 8 10 4 9 9 27 24 16 12 20
66 73 87 108 109 95 84 81 84 86 91 45 22 46 8 17 31 38 33 32 45 47 23 39 49 25 18 55 61 51 53 46 28 14 14 15 12 5 6 4 8 9 8 22 17 6 12
68 72 91 88 92 81 77 71 72 92 58 35 34 43 11 7 15 32 26 16 32 56 7 12 13 44 79 68 23 16 6 9 6 10 7 9 10 6 9 8 11 8 5 13 15 8 11
68 73 78 89 82 76 75 73 79 62 39 30 38 34 12 9 3 7 36 19 23 19 16 4 48 66 45 8 8 8 9 10 9 4 7 8 9 8 5 10 16 12 3 16 6 5 11
65 77 81 84 84 84 87 70 49 29 10 26 35 22 7 13 16 9 12 29 14 9 11 13 13 14 20 5 6 6 3 2 15 23 13 10 5 13 7 6 13 10 14 11 12 7 21
77 99 91 86 86 74 62 41 23 11 12 12 10 21 19 13 33 21 22 17 35 20 16 23 17 3 5 8 6 6 7 10 7 9 13 12 13 7 6 3 15 19 6 9 14 18 24
58 56 55 63 59 50 42 30 23 25 21 8 15 16 32 25 26 49 42 30 31 25 34 8 6 8 13 9 3 7 5 5 11 12 5 4 12 11 9 7 10 19 26 19 21 24 13
Wind_Direction_850mb
271 261 263 248 243 242 243 238 239 238 235 233 232 232 229 226 226 227 224 222 220 219 219 219 215 219 219 218 214 129 131 209 211 219 224 223 217 210 209 229 314 206 260 266 248 264 279
266 265 264 258 244 241 241 238 233 233 235 235 234 230 230 228 224 223 224 222 219 217 215 216 209 210 218 229 239 220 247 131 210 206 212 210 213 210 230 241 196 300 287 286 285 274 260
265 266 264 262 266 240 237 233 231 231 230 230 232 232 230 227 223 219 220 221 217 214 212 208 206 210 222 222 200 218 228 248 229 215 215 206 203 188 203 272 251 269 296 299 246 239 246
267 264 261 259 261 258 234 232 231 229 231 231 234 232 229 225 220 216 216 218 215 209 208 206 208 209 235 239 219 198 204 214 219 223 209 204 204 216 204 224 304 223 187 239 267 213 237
264 262 261 257 254 258 249 225 226 225 225 225 225 229 228 223 221 215 209 212 212 205 201 199 206 203 236 220 214 207 214 213 212 207 209 208 202 197 195 158 172 206 242 211 267 3 314
260 259 258 256 258 257 243 219 223 222 220 222 220 218 219 221 217 212 205 203 205 202 185 191 209 189 225 207 209 201 215 212 205 196 185 172 169 194 184 185 223 222 226 223 201 320 10
257 255 255 253 256 257 237 215 209 215 219 218 215 214 213 212 209 206 197 186 184 197 184 187 191 197 339 201 193 197 207 199 199 183 195 179 196 223 204 216 240 122 211 219 360 78 341
256 252 254 250 251 244 233 214 201 202 212 211 209 213 214 209 205 202 196 191 193 189 184 197 210 204 229 184 172 193 201 195 193 197 185 175 227 204 178 179 213 214 220 231 274 289 247
255 250 247 245 243 243 235 225 205 204 206 218 216 215 216 212 208 200 200 202 199 153 168 211 208 213 196 184 196 198 192 195 182 198 192 207 216 183 184 179 203 218 220 200 224 350 234
252 246 244 240 236 230 225 224 212 201 203 204 219 214 216 213 208 206 207 202 191 189 184 191 197 227 196 202 234 202 198 185 209 210 180 219 238 188 203 219 195 230 188 199 245 217 258
249 247 236 238 234 229 219 217 218 211 207 205 206 210 212 206 201 205 210 200 196 189 220 175 173 186 189 172 138 190 200 200 188 187 178 211 171 193 191 217 194 240 151 185 220 224 185
237 235 233 233 232 227 224 218 214 207 202 207 204 206 209 204 206 216 205 196 191 213 217 168 153 169 160 195 176 147 180 190 204 175 224 241 21 200 212 156 186 142 106 165 185 218 235
230 227 229 228 231 228 215 208 209 205 207 204 202 199 203 203 205 206 199 184 205 222 145 166 170 167 179 178 164 164 178 182 184 171 207 205 228 262 325 200 182 169 148 209 211 202 232
228 221 223 222 219 220 216 209 209 200 203 197 192 196 201 202 206 192 190 203 210 197 176 256 168 174 182 161 194 143 171 197 207 161 131 198 238 195 210 230 199 195 193 194 222 195 185
225 228 215 217 218 212 209 202 202 200 198 200 193 195 200 201 200 195 186 211 210 184 189 165 161 172 182 178 174 171 188 199 194 188 178 187 227 130 233 240 197 194 211 151 175 8 113
215 213 206 209 208 208 205 204 202 204 200 194 191 188 202 199 199 195 208 211 223 217 163 151 180 178 174 184 162 188 179 197 176 185 170 179 165 225 277 219 220 223 165 170 209 204 207
210 213 208 205 202 202 200 202 200 197 195 190 184 184 200 196 194 201 213 213 188 215 175 188 181 171 195 179 194 192 193 168 155 169 179 137 160 155 319 202 213 203 244 209 143 189 210
212 214 211 205 203 203 201 202 203 202 200 181 173 170 179 187 191 192 208 165 187 209 223 191 174 145 187 184 193 192 207 193 169 152 180 165 161 193 202 338 15 84 213 230 228 195 242
223 212 209 208 204 203 204 202 201 203 198 172 146 114 175 187 200 206 172 197 209 188 209 184 180 185 166 173 188 180 168 173 165 166 167 159 171 136 209 160 185 196 182 164 186 200 218
213 205 199 201 205 206 202 202 200 199 172 161 145 153 156 181 209 213 198 186 199 218 227 218 191 121 120 171 189 178 143 162 176 180 171 157 169 186 210 183 136 196 202 191 154 191 256
209 203 199 198 198 197 197 196 195 186 174 163 167 190 184 169 197 193 183 184 177 183 209 216 210 182 159 155 124 163 129 121 172 186 165 166 187 186 147 169 145 194 184 184 192 185 146
200 189 191 188 189 187 187 185 186 183 174 177 149 149 166 212 183 187 187 199 192 179 191 213 212 188 176 171 185 174 150 156 171 167 165 180 173 163 116 140 131 165 193 196 200 196 196
157 165 180 185 177 179 178 182 185 184 172 187 189 146 185 175 174 185 200 190 204 185 240 209 218 164 188 195 181 173 164 141 148 172 167 158 128 153 185 220 92 282 222 199 198 201 204
116 132 144 153 162 166 171 175 182 181 174 191 216 214 233 167 179 186 177 199 194 183 204 199 205 163 155 139 117 101 84 82 99 72 122 146 111 132 168 84 199 242 309 213 212 80 41
108 121 137 146 151 158 159 163 170 172 177 211 228 221 249 114 153 197 179 163 172 177 211 102 165 168 142 122 106 95 46 62 31 32 67 179 116 129 167 190 294 305 157 148 166 190 34
106 116 133 147 150 153 150 153 162 169 197 220 224 226 208 134 64 242 167 146 147 147 134 341 123 145 137 74 90 128 165 144 160 86 339 102 138 124 84 143 208 232 207 347 131 233 60
95 117 119 125 131 137 139 143 147 159 216 201 208 170 167 80 9 65 131 153 134 107 112 133 165 87 128 91 106 121 105 218 152 164 162 130 96 157 172 205 283 269 324 327 130 179 108
80 98 114 121 130 135 137 140 145 84 76 193 136 139 150 103 42 88 116 119 140 155 155 168 101 63 41 74 107 166 120 208 99 170 172 156 155 166 116 129 268 8 320 195 119 102 115
87 93 102 123 125 127 129 141 93 68 40 61 92 112 134 99 105 81 85 97 119 125 140 146 109 127 140 104 95 102 112 140 151 178 171 201 181 176 187 192 72 37 98 97 151 139 126